• In United Kingdom
  • List of Countries
  • For 7 days
  • Water Temperature
  • Satellite Maps
  • Weather Map
  • Weather Widgets
  • user-avatar
    Login

    Hourly Weather Sankt Polten

    Today, 21 July, Friday

    Time Temperature Precipitation Wind Pressure Humidity
    00:00 +20°C° 1.8 mm 2 mps 735 mmHg 95%
    01:00 +20°C° 1.8 mm 2 mps 735 mmHg 96%
    02:00 +20°C° 0.7 mm 2 mps 735 mmHg 96%
    03:00 +19°C° 0.7 mm 2 mps 735 mmHg 96%
    04:00 +19°C° 0.7 mm 2 mps 735 mmHg 96%
    05:00 +20°C° 0.2 mm 1 mps 735 mmHg 95%
    06:00 +21°C° 0.2 mm 1 mps 736 mmHg 93%
    07:00 +21°C° 0.2 mm 1 mps 736 mmHg 92%
    08:00 +23°C° 0 mm 1 mps 736 mmHg 82%
    09:00 +25°C° 0 mm 1 mps 736 mmHg 72%
    10:00 +27°C° 0 mm 1 mps 736 mmHg 62%
    11:00 +28°C° 0 mm 1 mps 736 mmHg 57%
    12:00 +29°C° 0 mm 1 mps 736 mmHg 51%
    13:00 +30°C° 0 mm 2 mps 736 mmHg 45%
    14:00 +30°C° 0.2 mm 2 mps 735 mmHg 47%
    15:00 +30°C° 0.2 mm 2 mps 735 mmHg 50%
    16:00 +30°C° 0.2 mm 2 mps 735 mmHg 52%
    17:00 +28°C° 0.1 mm 2 mps 735 mmHg 59%
    18:00 +27°C° 0.1 mm 2 mps 734 mmHg 66%
    19:00 +25°C° 0.1 mm 2 mps 734 mmHg 73%
    20:00 +24°C° 0.2 mm 2 mps 734 mmHg 77%
    21:00 +23°C° 0.2 mm 2 mps 734 mmHg 81%
    22:00 +21°C° 0.2 mm 1 mps 735 mmHg 84%
    23:00 +21°C° 0.1 mm 1 mps 734 mmHg 86%

    Tomorrow, 22 July, Saturday

    Time Temperature Precipitation Wind Pressure Humidity
    00:00 +21°C° 0.1 mm 1 mps 734 mmHg 88%
    01:00 +20°C° 0.1 mm 1 mps 734 mmHg 90%
    02:00 +20°C° 0 mm 1 mps 734 mmHg 91%
    03:00 +20°C° 0 mm 1 mps 734 mmHg 92%
    04:00 +19°C° 0 mm 1 mps 734 mmHg 93%
    05:00 +21°C° 0 mm 1 mps 735 mmHg 89%
    06:00 +22°C° 0 mm 1 mps 735 mmHg 85%
    07:00 +21°C° 0 mm 0 mps 735 mmHg 81%
    08:00 +25°C° 0 mm 1 mps 735 mmHg 74%
    09:00 +27°C° 0 mm 1 mps 735 mmHg 66%
    10:00 +29°C° 0 mm 1 mps 736 mmHg 59%
    11:00 +30°C° 0.1 mm 1 mps 735 mmHg 56%
    12:00 +31°C° 0.1 mm 1 mps 735 mmHg 54%
    13:00 +32°C° 0.1 mm 1 mps 735 mmHg 51%
    14:00 +31°C° 0.6 mm 1 mps 735 mmHg 53%
    15:00 +31°C° 0.6 mm 1 mps 735 mmHg 54%
    16:00 +29°C° 0.6 mm 0 mps 735 mmHg 56%
    17:00 +27°C° 0.2 mm 0 mps 735 mmHg 62%
    18:00 +26°C° 0.2 mm 0 mps 735 mmHg 68%
    19:00 +24°C° 0.2 mm 0 mps 735 mmHg 73%
    20:00 +25°C° 0.1 mm 1 mps 735 mmHg 75%
    21:00 +24°C° 0.1 mm 1 mps 735 mmHg 76%
    22:00 +23°C° 0.1 mm 1 mps 735 mmHg 78%
    23:00 +23°C° 0.2 mm 1 mps 735 mmHg 80%

    Day after tomorrow, 23 July, Sunday

    Time Temperature Precipitation Wind Pressure Humidity
    00:00 +23°C° 0.2 mm 1 mps 735 mmHg 82%
    01:00 +22°C° 0.2 mm 1 mps 735 mmHg 83%
    02:00 +22°C° 0.2 mm 1 mps 735 mmHg 85%
    03:00 +21°C° 0.2 mm 1 mps 735 mmHg 86%
    04:00 +21°C° 0.2 mm 1 mps 735 mmHg 87%
    05:00 +22°C° 0.3 mm 1 mps 735 mmHg 85%
    06:00 +23°C° 0.3 mm 1 mps 736 mmHg 84%
    07:00 +24°C° 0.3 mm 1 mps 736 mmHg 82%
    08:00 +26°C° 0.4 mm 1 mps 736 mmHg 76%
    09:00 +27°C° 0.4 mm 1 mps 736 mmHg 70%
    10:00 +29°C° 0.4 mm 1 mps 735 mmHg 63%
    11:00 +30°C° 0.6 mm 1 mps 735 mmHg 60%
    12:00 +30°C° 0.6 mm 2 mps 735 mmHg 57%
    13:00 +31°C° 0.6 mm 2 mps 735 mmHg 54%
    14:00 +31°C° 0.7 mm 2 mps 735 mmHg 56%
    15:00 +30°C° 0.7 mm 2 mps 735 mmHg 58%
    16:00 +30°C° 0.7 mm 2 mps 735 mmHg 60%
    17:00 +28°C° 0.7 mm 2 mps 735 mmHg 67%
    18:00 +27°C° 0.7 mm 2 mps 735 mmHg 73%
    19:00 +25°C° 0.7 mm 2 mps 735 mmHg 80%
    20:00 +24°C° 0.5 mm 2 mps 735 mmHg 83%
    21:00 +23°C° 0.5 mm 2 mps 735 mmHg 86%
    22:00 +22°C° 0.5 mm 1 mps 735 mmHg 89%
    23:00 +20°C° 1 mm 2 mps 735 mmHg 91%

    24 July, Monday

    Time Temperature Precipitation Wind Pressure Humidity
    00:00 +20°C° 1 mm 2 mps 735 mmHg 93%
    01:00 +19°C° 1 mm 2 mps 735 mmHg 95%
    02:00 +19°C° 1.7 mm 2 mps 735 mmHg 95%
    03:00 +19°C° 1.7 mm 2 mps 735 mmHg 95%
    04:00 +19°C° 1.7 mm 3 mps 735 mmHg 96%
    05:00 +18°C° 0.5 mm 2 mps 734 mmHg 95%
    06:00 +18°C° 0.5 mm 2 mps 734 mmHg 95%
    07:00 +19°C° 0.5 mm 1 mps 734 mmHg 94%
    08:00 +20°C° 0 mm 1 mps 734 mmHg 86%
    09:00 +22°C° 0 mm 1 mps 734 mmHg 78%
    10:00 +24°C° 0 mm 1 mps 734 mmHg 69%
    11:00 +24°C° 0 mm 1 mps 733 mmHg 66%
    12:00 +25°C° 0 mm 1 mps 733 mmHg 63%
    13:00 +25°C° 0 mm 1 mps 732 mmHg 60%
    14:00 +26°C° 0 mm 1 mps 732 mmHg 59%
    15:00 +26°C° 0 mm 1 mps 731 mmHg 57%
    16:00 +27°C° 0 mm 1 mps 731 mmHg 55%
    17:00 +25°C° 0.9 mm 2 mps 731 mmHg 65%
    18:00 +23°C° 0.9 mm 2 mps 731 mmHg 74%
    19:00 +20°C° 0.9 mm 3 mps 731 mmHg 84%
    20:00 +19°C° 2.6 mm 3 mps 731 mmHg 88%
    21:00 +18°C° 2.6 mm 3 mps 731 mmHg 91%
    22:00 +17°C° 2.6 mm 4 mps 731 mmHg 95%
    23:00 +17°C° 1.2 mm 4 mps 731 mmHg 95%

    25 July, Tuesday

    Time Temperature Precipitation Wind Pressure Humidity
    00:00 +15°C° 1.2 mm 4 mps 731 mmHg 95%
    01:00 +15°C° 1.2 mm 4 mps 731 mmHg 95%
    02:00 +15°C° 0.2 mm 4 mps 731 mmHg 95%
    03:00 +15°C° 0.2 mm 4 mps 731 mmHg 95%
    04:00 +15°C° 0.2 mm 4 mps 731 mmHg 94%
    05:00 +15°C° 0.1 mm 4 mps 731 mmHg 93%
    06:00 +15°C° 0.1 mm 4 mps 731 mmHg 92%
    07:00 +15°C° 0.1 mm 4 mps 731 mmHg 90%
    08:00 +17°C° 0.1 mm 4 mps 731 mmHg 85%
    09:00 +17°C° 0.1 mm 5 mps 732 mmHg 80%
    10:00 +19°C° 0.1 mm 5 mps 732 mmHg 75%
    11:00 +20°C° 0.1 mm 5 mps 732 mmHg 70%
    12:00 +21°C° 0.1 mm 5 mps 732 mmHg 64%
    13:00 +22°C° 0.1 mm 6 mps 732 mmHg 59%
    14:00 +22°C° 0.1 mm 6 mps 732 mmHg 58%
    15:00 +22°C° 0.1 mm 6 mps 732 mmHg 58%
    16:00 +22°C° 0.1 mm 6 mps 732 mmHg 57%
    17:00 +21°C° 0.1 mm 5 mps 732 mmHg 63%
    18:00 +19°C° 0.1 mm 4 mps 732 mmHg 69%
    19:00 +18°C° 0.1 mm 4 mps 732 mmHg 75%
    20:00 +17°C° 0 mm 3 mps 733 mmHg 78%
    21:00 +16°C° 0 mm 3 mps 733 mmHg 82%
    22:00 +14°C° 0 mm 3 mps 733 mmHg 85%
    23:00 +14°C° 0 mm 3 mps 734 mmHg 87%

    26 July, Wednesday

    Time Temperature Precipitation Wind Pressure Humidity
    00:00 +14°C° 0 mm 3 mps 734 mmHg 88%
    01:00 +13°C° 0 mm 3 mps 734 mmHg 90%
    02:00 +13°C° 0 mm 3 mps 735 mmHg 91%
    03:00 +13°C° 0 mm 3 mps 735 mmHg 91%
    04:00 +13°C° 0 mm 3 mps 735 mmHg 92%
    05:00 +14°C° 0 mm 3 mps 735 mmHg 87%
    06:00 +16°C° 0 mm 3 mps 735 mmHg 83%
    07:00 +17°C° 0 mm 3 mps 735 mmHg 78%
    08:00 +19°C° 0 mm 3 mps 735 mmHg 71%
    09:00 +20°C° 0 mm 3 mps 736 mmHg 64%
    10:00 +22°C° 0 mm 4 mps 736 mmHg 57%
    11:00 +24°C° 0 mm 3 mps 735 mmHg 55%
    12:00 +25°C° 0 mm 3 mps 735 mmHg 52%
    13:00 +26°C° 0 mm 3 mps 735 mmHg 49%
    14:00 +26°C° 0.3 mm 3 mps 735 mmHg 51%
    15:00 +26°C° 0.3 mm 3 mps 735 mmHg 52%
    16:00 +26°C° 0.3 mm 2 mps 735 mmHg 54%
    17:00 +24°C° 0.1 mm 2 mps 735 mmHg 61%
    18:00 +23°C° 0.1 mm 1 mps 735 mmHg 68%
    19:00 +21°C° 0.1 mm 1 mps 735 mmHg 76%
    20:00 +20°C° 0 mm 1 mps 735 mmHg 78%
    21:00 +19°C° 0 mm 1 mps 735 mmHg 81%
    22:00 +18°C° 0 mm 1 mps 735 mmHg 84%
    23:00 +16°C° 0 mm 1 mps 735 mmHg 84%
    Show more